CAPE
82 72 43 14 20 68 208 334 319 298 322 458 496 457 596 881 1238 1549 1687 1656 1666 1753 1904 1830 1701 1853 1973 1963 1936 1884 1807 1722 1689 1784 1918 1901 1684 1491 1613 1623 1692 1975 1994 2104 2313 2310 2018 1888 1765 1522 1364 1103 991 895 781 664 496 20 19 22 5 2 1
93 157 133 92 78 56 100 285 355 341 330 475 543 649 654 804 1043 1410 1678 1739 1721 1722 1933 2030 1925 1752 1822 1906 1927 1935 1870 1816 1837 1910 1943 1922 1876 1623 1565 1620 1613 1768 1785 1798 1917 1952 1806 1762 1674 1516 1368 1096 1051 996 833 601 170 22 20 18 14 20 4
117 142 339 360 345 155 110 177 359 400 366 478 617 686 715 840 984 1267 1604 1803 1793 1749 1843 2077 2134 1945 1791 1783 1845 1940 1965 1936 1964 2050 2074 2005 1972 1936 1775 1659 1636 1680 1652 1700 1675 1701 1725 1726 1643 1452 1320 1127 1076 1005 886 676 336 59 29 19 43 38 24
318 179 387 401 378 250 202 194 336 426 417 501 694 768 789 902 1022 1218 1548 1850 1908 1859 1857 2012 2190 2171 2002 1834 1777 1816 1958 2027 2063 2148 2192 2126 2062 2057 1987 1836 1703 1743 1720 1689 1646 1579 1632 1629 1562 1395 1329 1180 1146 1050 843 831 473 245 64 30 43 25 42
292 316 322 372 430 412 409 307 369 470 582 605 756 843 854 928 1075 1265 1550 1899 2038 2022 1990 2032 2161 2246 2210 2063 1899 1820 1875 2024 2136 2216 2267 2230 2150 2127 2106 2023 1885 1844 1826 1727 1656 1506 1566 1540 1477 1381 1333 1226 1200 1045 812 808 625 262 70 49 55 50 25
48 281 312 350 391 473 485 504 528 566 657 672 790 908 915 990 1119 1318 1602 1986 2162 2190 2148 2134 2183 2276 2281 2231 2138 2046 1963 2000 2140 2263 2314 2314 2250 2194 2153 2160 2080 2008 1935 1803 1610 1493 1485 1405 1380 1368 1305 1248 1208 1074 951 848 701 444 47 36 50 92 37
36 124 350 386 375 467 526 565 577 645 732 740 802 946 1025 1058 1179 1358 1654 2003 2242 2332 2325 2311 2307 2321 2336 2318 2292 2255 2184 2133 2168 2283 2343 2371 2316 2263 2193 2142 2115 2039 1938 1761 1619 1572 1545 1456 1388 1369 1316 1295 1217 1068 964 918 872 556 31 24 20 62 82
38 51 62 106 378 402 476 581 722 768 844 868 848 998 1079 1116 1235 1382 1647 1994 2324 2434 2461 2485 2469 2460 2437 2408 2402 2393 2368 2318 2267 2305 2357 2387 2405 2358 2258 2137 2113 2003 1837 1722 1623 1637 1616 1597 1501 1430 1380 1361 1286 1140 1028 898 777 434 42 38 10 17 78
32 69 87 91 154 268 384 606 777 876 952 1015 1022 1115 1176 1198 1302 1401 1612 1935 2313 2504 2586 2617 2629 2602 2566 2514 2480 2488 2513 2487 2429 2385 2397 2396 2422 2441 2367 2227 2142 2061 1859 1803 1752 1673 1631 1619 1625 1553 1499 1446 1370 1246 948 751 624 456 224 218 78 9 39
35 84 125 156 167 213 340 629 781 923 1027 1095 1139 1206 1265 1294 1353 1430 1578 1859 2230 2494 2643 2730 2761 2731 2685 2629 2577 2562 2586 2609 2569 2502 2460 2425 2411 2434 2444 2360 2237 2182 2060 1893 1850 1808 1745 1650 1619 1618 1581 1509 1443 1351 1174 966 798 658 536 505 194 34 35
138 218 283 230 185 191 311 610 795 986 1080 1144 1224 1290 1366 1396 1422 1465 1552 1769 2134 2381 2615 2781 2856 2847 2783 2723 2670 2620 2630 2661 2654 2592 2534 2476 2410 2378 2415 2423 2382 2292 2225 2101 1977 1942 1900 1820 1770 1693 1596 1562 1495 1407 1286 1117 941 810 683 613 326 117 73
252 351 426 434 238 204 472 513 765 985 1114 1176 1247 1371 1445 1478 1500 1522 1560 1699 1998 2303 2558 2753 2894 2934 2866 2812 2752 2717 2687 2694 2698 2664 2611 2541 2439 2365 2342 2377 2392 2395 2356 2257 2154 2080 2024 1968 1901 1816 1668 1541 1512 1443 1313 1180 1028 920 802 686 515 177 154
338 434 461 504 418 203 463 453 629 878 1130 1205 1236 1399 1527 1528 1529 1556 1597 1666 1842 2187 2525 2722 2886 2982 2962 2883 2830 2787 2745 2715 2714 2710 2679 2594 2495 2387 2291 2286 2322 2352 2391 2363 2271 2162 2119 2071 2005 1898 1803 1705 1581 1415 1282 1175 1066 975 852 687 492 181 216
340 422 447 457 455 238 342 513 719 896 1069 1207 1297 1442 1538 1586 1590 1591 1631 1705 1803 2045 2427 2681 2854 3000 3022 2971 2908 2847 2792 2751 2725 2715 2695 2635 2557 2453 2309 2250 2268 2304 2348 2367 2347 2273 2175 2135 2082 2010 1914 1834 1723 1619 1466 1332 1197 1056 907 732 540 298 349
178 172 288 336 390 463 490 546 749 942 1124 1247 1334 1478 1614 1665 1681 1691 1708 1747 1828 1946 2256 2580 2804 2973 3056 3047 2984 2909 2845 2806 2759 2728 2702 2660 2598 2516 2402 2283 2263 2284 2313 2341 2338 2314 2260 2166 2101 2048 2007 1929 1848 1752 1651 1530 1400 1269 1104 918 750 599 585
107 200 258 302 354 426 500 609 749 873 1077 1366 1490 1540 1699 1806 1821 1781 1750 1760 1830 1939 2112 2407 2715 2909 3049 3098 3065 2985 2909 2854 2804 2769 2731 2702 2643 2588 2497 2387 2317 2311 2329 2346 2366 2351 2319 2281 2216 2145 2084 2038 1965 1891 1818 1723 1604 1473 1331 1192 1047 945 1184
183 203 310 333 381 430 487 600 791 914 1045 1338 1646 1735 1804 1881 1921 1926 1896 1856 1859 1933 2045 2244 2563 2826 3003 3104 3119 3080 3000 2917 2854 2801 2783 2743 2716 2674 2606 2535 2448 2378 2362 2391 2416 2429 2408 2371 2339 2303 2242 2182 2116 2059 2005 1938 1821 1722 1608 1497 1457 1562 1484
306 320 403 388 455 537 602 664 835 1045 1196 1381 1705 1891 1937 2011 2024 2022 2031 1997 1953 1948 1993 2146 2397 2677 2893 3043 3129 3157 3112 3016 2920 2846 2821 2795 2770 2739 2704 2637 2570 2505 2444 2444 2492 2535 2535 2490 2448 2428 2400 2366 2320 2257 2194 2116 2027 1944 1843 1785 2065 2232 2127
464 478 463 580 596 628 728 845 996 1146 1314 1452 1695 1964 2124 2178 2154 2127 2116 2087 2065 1996 1962 1999 2295 2530 2772 2965 3113 3212 3188 3126 3025 2937 2871 2839 2815 2790 2764 2724 2640 2595 2558 2519 2529 2615 2639 2644 2593 2567 2526 2499 2463 2438 2391 2342 2282 2207 2191 2366 2518 2539 2413
846 708 713 704 700 714 852 999 1112 1266 1334 1446 1609 1890 2163 2315 2354 2329 2248 2183 2137 2096 2126 2209 2210 2456 2689 2896 3078 3215 3237 3192 3106 3029 2962 2899 2856 2850 2829 2778 2719 2645 2602 2593 2573 2609 2712 2748 2732 2701 2677 2655 2608 2588 2547 2524 2499 2615 2684 2746 2800 2752 2586
1020 921 968 906 776 818 849 987 1148 1333 1421 1431 1488 1692 2030 2364 2474 2510 2450 2367 2284 2261 2293 2310 2320 2425 2650 2847 3065 3193 3246 3229 3179 3119 3050 2978 2933 2913 2902 2859 2792 2720 2665 2622 2608 2658 2792 2853 2876 2868 2837 2821 2794 2769 2746 2801 2966 3041 3020 3006 3016 2862 2639
1272 1111 1000 1018 980 898 889 979 1097 1200 1353 1473 1629 1756 1895 2284 2591 2679 2640 2559 2496 2438 2407 2404 2390 2415 2621 2815 3015 3158 3216 3229 3212 3176 3105 3042 2992 2975 2991 2971 2916 2858 2802 2719 2680 2774 2880 2946 2972 2997 2992 3000 2984 2982 3083 3264 3349 3318 3270 3221 3137 2896 2642
375 1212 1334 1470 1674 1688 1362 1110 1177 1312 1328 1463 1714 1905 1995 2114 2455 2763 2821 2741 2675 2624 2502 2451 2431 2462 2582 2763 2936 3102 3193 3216 3203 3184 3151 3085 3025 3004 3047 3070 3066 3024 2978 2956 2941 2960 3000 3088 3136 3161 3189 3195 3248 3359 3485 3562 3555 3479 3384 3303 3102 2795 2571
902 0 40 216 1335 1763 1984 1963 1856 2036 2299 2057 1990 2139 2216 2202 2303 2530 2776 2866 2839 2734 2590 2447 2471 2492 2510 2691 2836 3024 3140 3197 3200 3189 3184 3130 3064 3031 3062 3131 3172 3164 3148 3192 3219 3210 3203 3225 3290 3383 3430 3490 3543 3598 3657 3680 3570 3462 3321 3196 3070 2848 2574
2112 2117 1693 564 35 818 1681 2038 2109 2123 2459 2842 2913 2791 2725 2705 2645 2719 2770 2789 2825 2811 2726 2607 2559 2553 2569 2609 2731 2911 3127 3255 3275 3240 3219 3192 3130 3084 3128 3244 3339 3353 3374 3386 3402 3439 3423 3413 3449 3493 3527 3602 3681 3775 3765 3662 3568 3482 3331 3192 3049 2851 2586
1715 1984 2721 3018 2503 822 766 1688 2232 2197 2248 2634 3042 3246 3306 3125 2994 2968 2975 2961 2931 2883 2858 2831 2738 2650 2606 2613 2653 2878 3149 3346 3402 3384 3350 3319 3265 3245 3314 3437 3519 3564 3587 3588 3598 3637 3657 3677 3695 3738 3788 3830 3832 3737 3644 3575 3490 3383 3225 3120 2926 2663 2445
1921 2170 2304 2394 2399 2820 1708 930 2042 2313 2399 2373 2717 3189 3510 3494 3234 3120 3127 3134 3071 3017 3014 2993 2927 2807 2738 2711 2705 2819 3206 3455 3548 3568 3558 3524 3498 3498 3555 3625 3679 3748 3789 3792 3793 3779 3815 3847 3872 3861 3836 3803 3718 3566 3450 3419 3324 3134 2898 2739 2589 2389 2180
2132 2158 2177 2325 2290 2302 2776 3164 2570 1490 2192 2528 2616 2912 3308 3536 3463 3280 3214 3196 3178 3189 3204 3128 3005 2920 2837 2775 2758 2921 3328 3602 3723 3756 3795 3784 3735 3707 3730 3783 3820 3881 3946 3969 3969 3959 3958 3922 3884 3846 3802 3731 3627 3500 3351 3169 2976 2782 2621 2522 2253 1995 1893
2728 2318 2408 2358 2411 2624 2454 2752 3221 3152 2937 3118 2674 2832 3196 3424 3568 3528 3328 3181 3196 3276 3272 3201 3105 2983 2897 2841 2803 3118 3553 3830 3913 3950 3996 3986 3927 3872 3896 3950 4014 4065 4074 4084 4086 4107 4095 4055 4007 3919 3839 3726 3532 3296 3103 2965 2738 2537 2354 2085 1881 1709 1568
3011 2676 2547 2664 2581 2594 2612 2654 2854 3126 3505 3332 3371 3460 3516 3471 3551 3562 3563 3433 3318 3243 3194 3203 3159 3068 2970 2929 3030 3550 3846 4038 4087 4128 4122 4099 4050 3995 4002 4098 4181 4232 4235 4222 4254 4249 4246 4161 4049 3883 3750 3558 3292 2992 2518 2349 2269 2080 1926 1772 1600 1461 1327
2028 2632 2721 2564 2765 2782 2722 2626 2626 2814 3132 3430 3528 3565 3757 3725 3733 3732 3706 3542 3407 3358 3344 3290 3353 3388 3381 3406 3658 3949 4184 4210 4202 4205 4194 4187 4162 4139 4115 4183 4259 4312 4286 4328 4312 4292 4241 4033 3838 3627 3388 3151 2669 2154 2078 1957 1688 1541 1428 1248 1059 1052 1028
1678 1862 2635 2977 2772 2774 2854 2790 2584 2576 2754 2930 3294 3674 3740 3871 3839 3888 3801 3783 3690 3627 3610 3624 3744 3736 3778 3856 3993 4113 4234 4298 4314 4290 4271 4278 4255 4210 4189 4245 4294 4330 4308 4269 4199 4067 3949 3766 3425 3204 2863 2384 2140 1990 1801 1544 1249 1114 950 905 982 965 808
1806 1834 1856 2009 2121 2483 2756 2819 2700 2598 2207 2439 2866 3122 3484 3621 3756 3740 3636 3871 4237 4053 4104 4111 4033 4092 4093 4061 4063 4120 4170 4225 4250 4285 4320 4331 4319 4296 4292 4287 4291 4292 4227 4037 3910 3751 3557 3395 3139 2653 2324 2162 1934 1748 1490 1231 940 656 664 645 544 422 297
1791 1954 2083 2042 2070 1978 2216 2544 2511 2516 2607 2686 2678 2973 3421 3477 3384 3222 3217 3443 3894 4187 4068 3821 3936 3753 3907 4084 4027 4090 4134 4110 4190 4244 4321 4323 4324 4371 4360 4322 4208 4114 4006 3807 3630 3348 3023 2737 2478 2289 2021 1694 1514 1286 1031 749 472 418 452 408 436 456 190
1682 1868 1978 2038 2160 2190 2102 2258 2289 2232 2170 2156 2458 3096 3479 3910 4158 3994 3884 3964 4105 4222 4074 3918 3689 3804 3714 3881 4062 3998 3987 4074 4025 4125 4215 4323 4404 4352 4058 3991 3940 3727 3628 3282 2770 2653 2495 2194 1997 1828 1648 1404 1208 979 699 464 418 488 503 539 482 321 0
1370 1608 1788 1950 1950 2083 2190 2170 2102 2100 2045 2226 2441 2789 3105 3187 3734 4381 4480 4426 4408 4059 4007 3994 3833 3735 3722 3737 3530 3587 3641 3971 3877 4030 4221 4251 4238 4070 3802 3718 3454 2766 2434 2234 2032 1864 1731 1669 1642 1511 1263 1048 876 622 419 475 684 631 556 481 421 527 542
1136 1352 1596 1646 1721 1802 1943 2084 2098 2019 1958 2004 1978 2005 2040 2010 2046 2597 3293 3887 3845 3986 4004 3619 3564 3572 3228 2428 2414 2852 3064 3450 3691 3379 3290 3173 3358 3460 3378 2109 2130 2075 1851 1615 1384 1158 944 924 958 921 823 628 592 535 534 707 720 611 616 643 661 654 524
1257 1246 1229 1172 1129 1103 1088 1314 1429 1720 2052 1976 1838 1700 1575 1540 1578 1645 2204 2742 3182 3345 3408 3363 3198 2479 1922 1721 1609 2124 2298 2423 2372 2112 2146 2248 2674 2475 1915 1974 1779 1540 1281 1061 840 758 723 714 707 624 678 714 606 786 798 733 759 779 759 715 662 554 242
Wind_Speed
nan nan nan nan nan nan 15 15 16 15 15 15 15 17 18 18 18 17 18 20 21 21 20 20 19 18 18 17 16 15 14 14 13 11 10 10 11 12 13 13 14 14 15 17 16 16 14 16 18 18 17 17 19 20 22 23 24 nan nan nan nan nan nan
nan 20 18 nan nan nan 15 16 16 15 15 15 15 18 18 18 18 18 19 21 22 23 22 21 20 17 17 18 18 17 16 15 15 13 12 11 12 12 12 14 14 15 15 16 17 15 15 15 18 19 19 19 19 21 22 23 23 nan nan nan nan nan nan
21 22 20 19 17 15 15 14 15 17 16 15 16 17 17 18 20 21 21 20 21 22 21 20 19 18 17 18 18 17 17 17 17 16 14 14 14 14 13 13 14 14 15 16 16 15 15 16 16 18 20 20 20 21 21 22 22 nan nan nan nan nan nan
20 20 19 19 17 16 14 13 16 16 16 16 17 18 17 18 20 20 20 22 22 21 20 18 19 19 19 18 18 18 17 17 17 17 17 17 17 16 15 14 14 15 15 15 15 15 15 16 17 18 20 20 20 20 20 22 23 25 nan nan nan nan nan
21 20 16 15 16 14 12 14 16 16 15 15 16 18 18 19 21 20 20 21 23 23 22 22 20 19 19 19 19 19 18 18 18 18 18 19 19 18 16 15 15 15 15 15 14 14 15 16 17 18 19 20 20 20 21 22 25 27 nan nan nan nan nan
nan 21 17 15 16 15 14 15 17 16 15 15 16 16 16 19 19 22 23 23 22 21 21 21 21 20 19 19 19 19 19 18 18 18 19 19 19 17 16 15 15 15 15 14 12 12 15 16 17 19 20 20 21 21 22 25 26 29 nan nan nan nan nan
nan 23 19 16 15 15 13 14 15 15 13 13 15 16 16 16 18 20 22 23 24 24 22 21 20 20 18 19 17 18 17 16 16 15 16 16 16 15 15 15 14 13 13 13 10 11 13 15 17 18 20 21 21 23 25 27 28 28 nan nan nan nan nan
nan nan nan 16 14 14 13 15 16 16 15 16 18 16 15 14 16 18 21 23 24 23 21 21 20 19 19 18 17 16 15 14 14 13 12 12 12 11 12 12 12 11 11 10 9 11 12 14 15 17 19 20 21 24 26 28 29 29 nan nan nan nan nan
nan nan nan nan 16 17 18 20 19 19 21 21 18 14 14 15 17 18 19 21 22 22 20 19 19 20 20 19 17 15 15 14 12 11 9 9 9 8 9 9 9 8 7 7 9 10 12 14 15 17 18 19 21 24 25 27 28 30 32 34 nan nan nan
nan nan 18 20 19 19 19 19 21 23 23 23 19 15 15 16 17 16 16 18 19 18 18 18 18 19 20 19 17 16 15 12 10 8 7 6 6 6 6 6 6 5 4 6 9 11 11 13 15 17 18 20 22 23 24 26 28 31 33 36 37 nan nan
17 19 20 22 23 22 20 23 28 26 23 22 19 15 15 19 20 19 17 16 16 15 17 16 18 19 19 19 18 17 14 12 10 8 6 5 5 3 3 3 4 5 3 6 8 10 12 12 14 16 19 20 22 22 23 26 29 31 33 34 35 37 nan
19 20 20 22 23 25 25 24 26 28 26 22 18 15 15 19 21 20 18 15 15 16 16 16 18 19 19 19 18 16 15 13 10 8 7 6 6 4 3 3 4 4 5 6 8 10 11 12 14 16 19 19 20 21 23 25 28 31 34 35 35 36 37
18 19 20 23 26 26 25 23 23 26 27 25 20 15 15 18 21 21 20 19 18 18 17 17 19 20 20 19 18 16 15 14 11 9 9 8 8 7 6 5 4 4 5 6 7 9 10 12 14 15 16 17 18 21 24 26 27 29 32 34 35 36 38
19 18 18 23 26 28 29 24 21 24 25 25 21 18 16 17 20 21 22 21 20 20 20 19 20 22 21 20 18 16 15 14 13 12 12 11 11 10 8 7 6 5 6 7 6 8 10 12 13 13 14 16 18 21 23 26 27 29 32 34 36 37 38
19 18 19 25 27 28 28 25 22 23 25 24 24 22 19 19 18 20 23 24 23 23 22 23 23 22 22 21 19 17 16 16 15 15 15 14 14 12 9 8 7 6 6 5 6 8 9 10 11 12 14 16 19 22 24 27 28 30 33 36 37 38 40
18 19 22 25 26 25 25 24 22 25 27 27 28 26 23 20 18 19 22 24 26 26 25 27 25 24 23 22 20 18 18 18 17 17 17 16 14 12 11 9 8 7 5 5 7 8 9 9 11 13 16 19 21 23 25 27 29 33 41 41 39 41 41
19 20 19 16 18 21 22 23 24 27 29 28 28 27 24 21 19 19 20 22 26 26 26 27 26 24 23 23 21 21 21 21 19 19 17 16 15 14 12 10 9 7 6 7 8 8 9 10 13 15 18 21 23 26 27 29 31 40 43 45 46 44 43
21 23 21 17 19 24 25 25 27 29 29 29 28 27 26 25 25 24 22 22 22 23 26 26 26 25 24 24 25 24 24 23 22 19 17 17 15 14 13 12 10 8 7 8 9 9 11 12 14 17 20 22 25 28 30 31 36 45 48 49 49 48 45
30 35 36 32 29 27 26 27 28 28 29 30 29 27 26 30 31 27 25 23 21 24 27 27 26 26 25 26 28 27 26 26 25 20 17 16 16 17 17 14 11 9 8 8 10 13 12 13 16 18 21 24 27 29 32 33 41 48 51 52 52 52 49
36 39 40 40 36 30 28 28 28 27 27 29 28 28 29 34 35 32 29 26 26 28 28 28 27 26 26 28 28 29 28 28 27 22 17 17 19 20 18 15 11 10 11 12 13 13 13 14 17 19 22 25 28 30 32 34 42 50 52 52 53 54 53
37 42 43 42 38 33 30 27 23 21 22 25 27 31 35 36 36 36 36 35 32 30 30 29 28 27 28 29 28 29 30 30 29 25 20 19 21 22 19 16 14 12 13 14 13 13 14 15 18 20 23 26 29 30 33 35 46 50 51 52 55 57 55
39 40 38 38 37 34 31 27 26 24 24 27 30 34 38 38 38 40 41 41 37 34 33 33 32 29 30 30 30 30 30 31 30 28 24 22 23 23 20 18 15 14 15 15 14 14 14 15 18 21 24 28 31 32 35 38 49 51 52 54 56 59 55
46 44 43 42 42 39 36 34 31 29 30 33 35 37 38 38 41 43 45 44 41 38 36 37 36 32 31 31 30 30 31 31 32 31 28 24 24 23 21 19 17 17 19 17 16 16 16 18 20 23 27 30 33 36 38 40 49 54 55 56 60 60 54
55 nan nan 45 44 40 40 40 39 39 41 41 42 41 40 40 43 46 46 43 41 40 37 37 35 32 32 32 31 31 32 33 33 34 31 27 24 22 21 20 20 19 20 18 18 17 18 20 23 25 28 32 35 39 41 42 49 56 56 57 59 58 50
59 57 55 50 nan 41 40 41 41 40 42 46 45 44 47 46 44 45 44 41 40 39 36 33 32 32 32 32 33 33 33 34 34 34 33 28 24 23 22 22 22 23 23 20 20 19 21 24 26 27 29 32 36 41 43 43 47 52 53 55 55 52 45
65 64 62 60 59 51 43 44 47 47 48 48 44 44 49 49 46 43 41 40 41 40 37 33 30 31 32 34 37 37 34 34 35 35 34 30 27 24 24 26 27 26 25 25 24 25 25 27 29 31 32 34 37 38 40 43 43 45 51 56 56 54 48
57 61 65 66 63 61 57 52 50 47 46 46 44 45 50 51 50 46 42 42 42 40 37 35 33 33 35 39 41 40 37 35 35 36 34 33 31 29 30 30 28 29 30 31 30 29 29 31 32 33 35 36 36 38 40 42 45 45 52 54 56 54 52
52 58 61 63 67 69 65 64 62 58 54 51 54 56 53 51 50 47 45 47 45 40 38 38 38 39 42 43 42 42 41 38 37 37 38 38 38 36 34 32 31 32 34 35 34 34 35 35 35 36 38 39 39 40 42 44 48 49 50 54 56 57 56
50 51 53 58 62 64 64 64 64 65 64 62 60 61 61 60 55 50 47 46 45 43 42 45 47 45 45 46 46 44 43 41 40 40 42 43 43 41 38 37 36 37 39 39 39 39 40 39 39 40 41 42 42 42 44 46 48 53 53 53 56 58 56
50 50 51 52 52 52 53 53 53 56 61 66 70 68 68 65 61 58 56 51 48 46 48 52 53 52 50 49 48 47 45 43 42 42 45 47 48 46 44 42 41 41 42 42 42 43 43 41 41 43 43 44 45 45 46 47 49 51 55 54 55 56 58
53 53 52 53 53 51 49 50 48 47 51 57 63 68 70 71 70 67 60 57 61 60 56 54 56 58 54 51 51 52 50 47 46 46 47 49 52 51 49 47 46 47 45 46 45 45 44 42 43 44 44 45 47 47 48 49 51 52 53 56 57 59 60
57 57 56 56 57 56 54 53 54 53 51 53 59 61 65 69 71 68 67 71 70 68 64 63 63 62 59 56 57 59 57 53 52 52 51 51 53 55 52 50 49 50 48 48 47 46 45 45 45 45 46 47 48 49 50 50 52 54 53 52 54 56 60
57 58 59 61 58 58 59 59 60 60 57 55 53 53 56 59 66 73 79 83 82 81 82 79 72 68 66 64 63 65 65 61 57 58 57 55 57 59 57 54 53 53 52 50 48 47 46 47 47 47 47 48 49 51 52 53 54 54 51 51 51 50 50
55 55 57 58 60 60 62 64 65 67 65 61 57 55 54 54 56 60 65 70 77 81 86 90 84 71 69 70 67 68 71 68 64 62 60 57 60 63 61 56 54 53 52 50 49 48 47 47 47 47 48 49 51 52 54 55 55 52 51 52 51 47 43
54 53 52 54 56 60 64 63 65 67 68 65 60 59 60 59 58 59 62 67 69 73 80 87 91 82 72 71 71 75 79 74 66 63 64 64 67 70 65 56 53 55 55 53 51 49 49 47 48 48 48 51 54 55 56 56 51 47 51 54 51 47 nan
55 55 54 52 51 52 57 60 60 62 64 62 60 62 64 65 63 62 64 67 72 74 76 82 86 82 74 71 73 80 79 76 70 71 71 70 70 70 68 71 67 60 56 52 54 53 52 52 49 49 51 54 54 55 57 53 48 52 58 55 50 48 47
58 56 54 53 53 53 51 52 55 56 56 57 59 61 61 60 59 62 65 67 70 76 79 81 83 82 77 71 64 68 72 72 74 72 67 64 63 65 62 59 64 70 67 60 56 56 55 53 57 57 56 57 57 53 49 48 52 56 57 54 50 50 48
58 58 55 55 54 53 52 51 50 50 51 51 56 58 55 53 52 55 61 64 66 67 73 77 80 79 74 68 63 63 65 64 63 60 57 56 58 58 56 57 59 61 62 61 60 62 61 56 55 57 60 61 60 54 43 44 52 56 55 52 51 50 48
Wind_Direction
nan nan nan nan nan nan 298 304 308 305 303 305 308 306 301 298 303 304 306 309 313 306 303 301 301 298 304 297 294 290 290 290 286 291 291 293 292 295 297 293 305 313 314 316 319 323 321 318 326 333 335 340 340 341 341 341 341 nan nan nan nan nan nan
nan 307 298 nan nan nan 293 300 300 295 292 295 294 299 298 305 304 309 311 311 314 311 305 301 298 297 298 293 285 286 287 289 288 283 282 280 280 283 291 295 301 308 312 312 313 315 314 320 325 331 335 341 345 343 342 340 340 nan nan nan nan nan nan
323 322 308 294 291 288 296 293 291 290 292 288 287 291 304 312 313 317 309 308 312 309 304 303 299 293 287 285 284 285 284 282 283 287 288 284 285 288 288 291 294 300 308 308 308 310 312 319 326 330 334 339 344 344 343 339 339 nan nan nan nan nan nan
329 332 319 302 294 296 300 295 292 291 294 295 296 304 311 315 312 310 311 313 313 309 310 301 291 286 280 281 282 279 280 280 282 282 284 280 282 283 285 286 285 290 298 307 306 307 308 315 327 331 335 337 341 342 340 340 337 337 nan nan nan nan nan
342 335 317 299 300 294 287 280 284 296 302 298 299 304 310 312 309 310 313 313 314 316 312 307 294 288 280 281 272 271 276 279 278 277 277 276 277 278 284 289 287 294 299 299 302 304 307 314 326 331 334 335 336 336 338 337 338 337 nan nan nan nan nan
nan 333 323 314 309 303 294 293 298 302 298 289 289 294 299 304 310 321 319 314 313 310 305 304 302 294 288 282 274 271 270 274 276 276 276 276 275 276 281 284 287 292 296 303 297 302 308 316 327 331 332 332 332 333 334 336 338 338 nan nan nan nan nan
nan 334 330 325 321 316 304 293 292 295 289 282 281 283 287 298 316 321 315 317 315 314 311 309 305 299 291 281 279 279 281 278 276 277 272 273 274 275 276 278 284 292 293 285 297 299 308 319 328 329 330 331 331 333 334 337 339 339 nan nan nan nan nan
nan nan nan 331 328 331 316 293 293 291 280 264 264 273 293 305 310 312 319 320 315 311 312 312 307 301 294 285 282 286 282 280 274 274 270 275 274 275 275 276 283 285 279 295 295 298 312 322 322 322 326 329 332 334 336 338 340 338 nan nan nan nan nan
nan nan nan nan 323 333 322 302 295 290 287 281 283 291 303 299 303 315 324 317 312 315 318 314 309 300 294 292 289 290 283 281 278 277 279 282 273 279 276 270 270 267 278 285 288 297 312 320 319 321 326 330 333 334 336 338 338 337 338 340 nan nan nan
nan nan 313 317 317 324 319 297 280 273 274 276 279 284 300 305 305 306 307 310 309 320 317 311 304 300 298 297 297 295 292 291 284 287 286 286 272 278 269 255 242 237 249 275 282 300 311 317 318 319 327 332 334 336 336 336 336 337 339 341 343 nan nan
309 309 307 311 311 311 299 268 261 266 271 277 284 293 308 312 307 301 305 304 309 310 306 302 297 300 300 299 300 299 299 297 289 294 299 290 263 272 257 236 221 220 244 265 283 299 307 312 313 319 326 332 335 335 336 336 336 338 340 341 342 344 nan
301 298 298 303 300 293 290 277 264 265 271 274 279 288 300 305 305 302 296 299 297 289 288 295 294 300 299 299 300 298 302 299 295 301 301 288 274 275 251 225 227 238 242 268 289 296 305 312 312 319 327 331 332 332 334 333 335 340 342 341 340 341 343
292 296 293 291 290 291 289 277 266 266 273 277 278 280 287 297 302 295 286 288 291 288 289 291 294 299 300 298 300 296 299 298 299 288 282 277 271 256 241 237 244 252 257 267 290 301 303 310 319 319 323 327 327 330 332 332 334 339 340 339 338 340 341
235 251 267 281 285 291 297 292 271 262 269 275 274 276 277 285 293 289 280 282 285 283 285 284 293 300 303 300 299 299 300 295 288 279 273 267 264 260 255 252 248 241 242 259 290 300 307 313 319 316 312 320 325 327 327 329 333 336 336 335 337 338 340
253 256 267 281 290 292 295 292 274 263 265 270 270 271 272 271 276 277 273 271 274 280 290 290 292 300 306 305 303 303 296 286 277 271 269 268 267 268 267 262 251 239 244 260 278 279 299 304 306 308 313 315 320 322 323 328 333 332 332 332 335 337 339
278 286 288 292 296 296 293 294 276 258 257 259 263 265 265 263 271 282 283 277 279 286 291 289 295 302 309 314 312 296 289 286 278 275 274 273 274 271 267 256 247 243 249 266 274 278 284 291 299 308 314 316 319 321 325 330 331 333 335 333 333 336 337
249 259 259 265 281 287 286 283 269 253 251 255 262 270 270 269 271 277 283 277 275 282 287 290 295 301 308 317 309 293 288 284 284 280 282 281 271 262 261 255 243 238 244 255 265 276 279 289 305 312 313 319 322 328 331 332 331 332 331 335 340 337 337
248 258 262 269 273 270 268 266 256 250 252 256 262 268 271 275 276 278 285 282 279 282 282 287 293 300 306 309 300 295 293 289 287 285 285 278 271 263 256 247 239 235 242 255 270 272 276 297 312 314 316 320 326 331 333 332 331 330 332 337 342 339 335
248 248 243 237 241 249 260 263 255 250 253 259 265 268 276 283 284 288 290 287 284 275 276 285 291 295 298 299 300 302 298 290 288 290 284 281 272 257 249 246 240 238 245 260 264 267 285 305 309 314 320 323 328 332 330 329 329 331 335 339 340 339 335
252 257 257 250 246 247 247 244 243 252 265 271 274 281 284 282 286 290 291 289 277 271 274 280 284 287 291 292 297 301 298 292 291 288 286 276 266 257 252 250 245 240 242 246 255 272 291 302 313 318 322 325 328 328 326 328 326 332 336 339 337 336 335
244 251 258 261 261 260 256 251 244 247 259 269 277 275 272 274 279 282 281 279 278 277 278 280 282 280 281 286 292 294 293 293 292 290 281 273 267 261 257 253 242 242 245 251 265 282 296 308 316 319 320 322 323 323 324 324 324 331 335 336 335 334 331
234 242 250 256 266 268 266 259 252 250 252 255 261 265 268 273 276 277 278 277 280 280 279 281 280 278 276 280 286 290 292 293 292 288 280 272 267 264 260 254 251 252 251 255 263 275 287 299 309 316 319 320 320 322 322 318 322 330 333 334 332 330 323
227 229 236 245 251 249 248 251 252 254 253 252 255 261 264 268 272 274 275 275 277 279 278 276 275 275 276 280 284 288 289 288 288 286 283 276 269 266 262 257 256 254 253 261 271 283 298 307 311 313 315 317 319 321 317 314 324 331 333 331 330 321 315
226 nan nan 236 238 249 262 258 248 243 244 245 248 254 258 263 266 268 270 274 276 278 276 273 273 274 276 279 282 286 285 282 282 283 282 277 275 270 262 258 256 260 262 273 281 293 302 301 303 306 311 316 319 317 315 317 325 332 332 331 328 325 321
229 228 232 235 nan 243 247 256 265 266 260 254 251 248 249 252 258 262 267 270 274 275 275 272 272 272 273 277 280 280 278 276 276 278 280 280 277 268 265 262 262 261 265 273 281 288 286 290 298 300 304 311 313 316 319 319 322 330 330 328 326 329 327
226 227 232 236 234 234 240 248 250 249 253 256 256 255 256 257 259 263 266 268 270 271 271 273 274 273 271 270 269 268 268 268 273 275 277 279 275 267 262 257 256 263 270 271 274 277 282 288 293 298 301 302 306 311 316 313 311 318 325 328 329 331 326
228 229 231 234 234 232 236 240 249 255 256 257 259 261 263 263 264 267 267 265 262 263 268 273 272 267 262 259 261 265 268 266 270 275 274 272 270 264 259 258 262 267 270 270 269 275 280 285 287 292 294 294 297 303 305 307 309 314 323 326 327 329 324
230 230 232 234 235 237 237 239 242 244 245 250 251 249 249 254 266 267 266 264 263 262 263 263 258 253 253 255 259 264 265 265 266 270 268 264 261 261 262 261 266 270 269 268 274 279 279 277 281 285 286 287 293 300 301 302 309 311 317 322 325 326 324
239 237 232 231 232 233 237 240 240 242 243 244 250 256 255 253 250 248 252 259 264 263 265 262 254 250 251 254 256 259 263 263 265 264 261 261 262 263 262 261 264 265 266 270 273 275 274 276 279 283 286 288 291 294 296 299 302 309 312 319 321 323 322
244 242 240 240 239 235 236 240 242 243 242 242 241 246 254 258 260 258 252 245 244 246 255 258 255 252 251 252 255 255 255 257 260 259 259 261 259 258 258 259 261 262 264 267 270 270 271 274 279 282 287 291 292 291 293 296 298 305 311 313 319 319 322
244 243 243 241 239 240 242 242 240 243 244 240 242 245 246 253 259 259 261 259 255 251 251 254 254 251 250 250 252 253 251 253 256 257 256 257 257 256 255 256 259 259 259 263 265 268 272 275 278 282 286 289 291 291 293 296 297 298 304 311 314 318 322
242 245 246 245 244 243 246 247 247 243 240 238 235 235 241 247 251 260 261 261 262 261 259 255 250 248 248 248 250 251 252 255 257 256 254 253 251 253 253 256 256 258 259 261 264 267 271 275 277 281 285 287 288 291 293 294 293 294 299 305 311 315 322
237 240 243 245 247 249 250 251 251 248 248 247 243 242 240 241 246 251 253 253 251 252 252 251 249 246 243 246 248 249 251 258 258 254 250 249 247 246 247 249 252 256 258 260 264 267 271 275 278 281 285 287 288 290 292 293 294 296 300 304 308 312 315
237 238 240 244 246 250 253 253 254 254 254 253 254 254 252 250 248 250 253 256 259 258 255 252 246 243 243 242 243 245 250 254 260 255 246 246 246 246 246 246 251 256 259 262 266 269 272 275 279 283 286 287 289 290 290 291 295 299 304 308 310 311 312
240 241 243 243 244 247 251 254 255 256 256 257 259 262 263 260 258 256 258 261 262 264 262 257 252 246 242 240 239 240 244 247 247 245 244 241 235 235 237 243 249 252 251 251 261 268 273 275 276 280 283 285 287 288 289 292 298 305 307 312 315 313 nan
242 243 244 246 248 250 254 256 256 256 257 257 259 263 264 265 266 264 262 263 266 265 262 261 259 257 249 238 236 236 234 237 236 233 235 237 236 236 234 230 232 239 252 254 248 253 264 271 273 277 279 280 282 284 291 297 302 303 309 314 315 314 314
244 245 245 246 249 249 252 257 261 263 262 262 262 261 260 261 264 266 266 265 266 269 269 266 264 261 256 249 240 243 240 233 228 229 234 235 232 230 234 235 233 235 238 244 250 254 259 266 273 276 279 278 278 275 278 290 296 304 308 310 310 309 309
248 248 248 249 253 255 257 258 258 261 264 266 267 265 263 262 262 265 265 263 264 267 267 265 266 266 262 257 256 249 243 235 231 232 233 227 224 228 235 239 242 240 237 241 250 254 257 263 275 281 281 283 284 285 282 291 300 305 308 309 308 309 309